Hourly Weather Alhimkovo

Today, 2 March, Tuesday

Time Temperature Precipitation Wind Pressure Humidity
00:00 -1°C° 0 mm 4 mps 741 mmHg 91%
01:00 -1°C° 0 mm 4 mps 741 mmHg 91%
02:00 -1°C° 0 mm 5 mps 741 mmHg 92%
03:00 -1°C° 0 mm 4 mps 740 mmHg 91%
04:00 -1°C° 0 mm 4 mps 740 mmHg 90%
05:00 -1°C° 0 mm 4 mps 739 mmHg 90%
06:00 -1°C° 0 mm 4 mps 739 mmHg 89%
07:00 -1°C° 0 mm 4 mps 739 mmHg 88%
08:00 -1°C° 0 mm 4 mps 740 mmHg 88%
09:00 -1°C° 0 mm 5 mps 740 mmHg 87%
10:00 -1°C° 0 mm 5 mps 740 mmHg 85%
11:00 -1°C° 0 mm 5 mps 740 mmHg 84%
12:00 -1°C° 0 mm 5 mps 740 mmHg 83%
13:00 -1°C° 0 mm 5 mps 740 mmHg 83%
14:00 -1°C° 0 mm 5 mps 740 mmHg 82%
15:00 -1°C° 0 mm 5 mps 740 mmHg 85%
16:00 -2°C° 0 mm 5 mps 740 mmHg 87%
17:00 -2°C° 0 mm 5 mps 740 mmHg 90%
18:00 -4°C° 0.1 mm 5 mps 741 mmHg 88%
19:00 -4°C° 0.1 mm 5 mps 741 mmHg 86%
20:00 -4°C° 0.1 mm 5 mps 742 mmHg 84%
21:00 -5°C° 0 mm 5 mps 742 mmHg 85%
22:00 -5°C° 0 mm 4 mps 743 mmHg 86%
23:00 -7°C° 0 mm 4 mps 743 mmHg 87%

Tomorrow, 3 March, Wednesday

Time Temperature Precipitation Wind Pressure Humidity
00:00 -7°C° 0 mm 4 mps 744 mmHg 87%
01:00 -8°C° 0 mm 4 mps 744 mmHg 87%
02:00 -7°C° 0 mm 3 mps 745 mmHg 87%
03:00 -7°C° 0 mm 3 mps 744 mmHg 89%
04:00 -7°C° 0 mm 3 mps 744 mmHg 90%
05:00 -7°C° 0 mm 3 mps 744 mmHg 92%
06:00 -7°C° 0 mm 4 mps 744 mmHg 91%
07:00 -5°C° 0 mm 4 mps 744 mmHg 90%
08:00 -4°C° 0 mm 4 mps 744 mmHg 89%
09:00 -3°C° 0 mm 4 mps 744 mmHg 87%
10:00 -4°C° 0 mm 5 mps 744 mmHg 86%
11:00 -2°C° 0 mm 5 mps 743 mmHg 84%
12:00 -2°C° 0 mm 5 mps 743 mmHg 83%
13:00 -2°C° 0 mm 5 mps 743 mmHg 81%
14:00 -2°C° 0 mm 5 mps 743 mmHg 80%
15:00 -2°C° 0 mm 5 mps 742 mmHg 82%
16:00 -4°C° 0 mm 5 mps 741 mmHg 84%
17:00 -4°C° 0 mm 5 mps 741 mmHg 86%
18:00 -4°C° 0 mm 5 mps 740 mmHg 87%
19:00 -3°C° 0 mm 4 mps 740 mmHg 88%
20:00 -3°C° 0 mm 4 mps 739 mmHg 89%
21:00 -3°C° 0.1 mm 4 mps 738 mmHg 91%
22:00 -2°C° 0.1 mm 5 mps 737 mmHg 94%
23:00 -2°C° 0.1 mm 5 mps 736 mmHg 96%

Day after tomorrow, 4 March, Thursday

Time Temperature Precipitation Wind Pressure Humidity
00:00 -2°C° 0.5 mm 5 mps 736 mmHg 96%
01:00 -2°C° 0.5 mm 5 mps 735 mmHg 96%
02:00 -2°C° 0.5 mm 5 mps 735 mmHg 96%
03:00 -2°C° 0.4 mm 5 mps 734 mmHg 95%
04:00 -3°C° 0.4 mm 4 mps 734 mmHg 94%
05:00 -4°C° 0.4 mm 3 mps 734 mmHg 93%
06:00 -4°C° 0 mm 3 mps 734 mmHg 89%
07:00 -5°C° 0 mm 3 mps 734 mmHg 85%
08:00 -5°C° 0 mm 3 mps 734 mmHg 81%
09:00 -5°C° 0 mm 3 mps 734 mmHg 79%
10:00 -5°C° 0 mm 3 mps 734 mmHg 77%
11:00 -4°C° 0 mm 3 mps 734 mmHg 75%
12:00 -4°C° 0 mm 3 mps 734 mmHg 75%
13:00 -3°C° 0 mm 2 mps 734 mmHg 75%
14:00 -3°C° 0 mm 2 mps 734 mmHg 75%
15:00 -4°C° 0 mm 2 mps 734 mmHg 79%
16:00 -2°C° 0 mm 1 mps 734 mmHg 82%
17:00 -3°C° 0 mm 1 mps 734 mmHg 86%
18:00 -4°C° 0 mm 1 mps 734 mmHg 88%
19:00 -6°C° 0 mm 1 mps 734 mmHg 90%
20:00 -7°C° 0 mm 1 mps 735 mmHg 92%
21:00 -7°C° 0 mm 1 mps 735 mmHg 93%
22:00 -8°C° 0 mm 1 mps 735 mmHg 94%
23:00 -8°C° 0 mm 1 mps 735 mmHg 95%

5 March, Friday

Time Temperature Precipitation Wind Pressure Humidity
00:00 -8°C° 0 mm 1 mps 736 mmHg 95%
01:00 -8°C° 0 mm 1 mps 736 mmHg 95%
02:00 -8°C° 0 mm 0 mps 736 mmHg 96%
03:00 -8°C° 0 mm 0 mps 737 mmHg 96%
04:00 -8°C° 0 mm 1 mps 737 mmHg 96%
05:00 -8°C° 0 mm 1 mps 737 mmHg 96%
06:00 -8°C° 0 mm 1 mps 737 mmHg 94%
07:00 -7°C° 0 mm 1 mps 738 mmHg 93%
08:00 -7°C° 0 mm 1 mps 738 mmHg 92%
09:00 -7°C° 0 mm 2 mps 739 mmHg 88%
10:00 -6°C° 0 mm 2 mps 739 mmHg 85%
11:00 -6°C° 0 mm 2 mps 739 mmHg 81%
12:00 -6°C° 0.2 mm 3 mps 740 mmHg 79%
13:00 -6°C° 0.2 mm 3 mps 740 mmHg 76%
14:00 -6°C° 0.2 mm 3 mps 740 mmHg 73%
15:00 -7°C° 0.1 mm 3 mps 740 mmHg 76%
16:00 -7°C° 0.1 mm 2 mps 741 mmHg 80%
17:00 -8°C° 0.1 mm 2 mps 741 mmHg 83%
18:00 -9°C° 0 mm 2 mps 741 mmHg 85%
19:00 -9°C° 0 mm 2 mps 742 mmHg 88%
20:00 -10°C° 0 mm 2 mps 743 mmHg 90%
21:00 -12°C° 0 mm 2 mps 743 mmHg 92%
22:00 -12°C° 0 mm 2 mps 743 mmHg 93%
23:00 -12°C° 0 mm 2 mps 744 mmHg 95%

6 March, Saturday

Time Temperature Precipitation Wind Pressure Humidity
00:00 -11°C° 0 mm 1 mps 744 mmHg 95%
01:00 -12°C° 0 mm 1 mps 744 mmHg 94%
02:00 -12°C° 0 mm 1 mps 744 mmHg 94%
03:00 -13°C° 0 mm 1 mps 745 mmHg 93%
04:00 -13°C° 0 mm 1 mps 745 mmHg 91%
05:00 -13°C° 0 mm 0 mps 745 mmHg 90%
06:00 -12°C° 0 mm 1 mps 745 mmHg 88%
07:00 -12°C° 0 mm 1 mps 745 mmHg 86%
08:00 -11°C° 0 mm 1 mps 745 mmHg 84%
09:00 -10°C° 0 mm 1 mps 745 mmHg 81%
10:00 -9°C° 0 mm 2 mps 745 mmHg 79%
11:00 -8°C° 0 mm 2 mps 745 mmHg 77%
12:00 -9°C° 0 mm 3 mps 745 mmHg 75%
13:00 -8°C° 0 mm 3 mps 744 mmHg 74%
14:00 -8°C° 0 mm 3 mps 744 mmHg 73%
15:00 -9°C° 0 mm 3 mps 743 mmHg 76%
16:00 -9°C° 0 mm 3 mps 743 mmHg 79%
17:00 -9°C° 0 mm 2 mps 742 mmHg 82%
18:00 -10°C° 0 mm 3 mps 741 mmHg 82%
19:00 -11°C° 0 mm 4 mps 741 mmHg 82%
20:00 -11°C° 0 mm 4 mps 740 mmHg 82%
21:00 -11°C° 0 mm 5 mps 739 mmHg 84%
22:00 -11°C° 0 mm 5 mps 738 mmHg 86%
23:00 -10°C° 0 mm 6 mps 736 mmHg 88%

7 March, Sunday

Time Temperature Precipitation Wind Pressure Humidity
00:00 -10°C° 0.3 mm 6 mps 735 mmHg 89%
01:00 -10°C° 0.3 mm 6 mps 734 mmHg 90%
02:00 -11°C° 0.3 mm 7 mps 732 mmHg 92%
03:00 -9°C° 0.3 mm 7 mps 731 mmHg 92%
04:00 -9°C° 0.3 mm 7 mps 730 mmHg 92%
05:00 -8°C° 0.3 mm 7 mps 728 mmHg 91%
06:00 -8°C° 0.3 mm 7 mps 727 mmHg 91%
07:00 -7°C° 0.3 mm 7 mps 726 mmHg 91%
08:00 -7°C° 0.3 mm 8 mps 725 mmHg 91%
09:00 -7°C° 0.7 mm 8 mps 724 mmHg 89%
10:00 -7°C° 0.7 mm 8 mps 724 mmHg 88%
11:00 -7°C° 0.7 mm 8 mps 724 mmHg 87%
12:00 -8°C° 0.2 mm 8 mps 724 mmHg 79%
13:00 -9°C° 0.2 mm 7 mps 724 mmHg 72%
14:00 -11°C° 0.2 mm 7 mps 724 mmHg 64%
15:00 -11°C° 0 mm 7 mps 724 mmHg 71%
16:00 -10°C° 0 mm 6 mps 725 mmHg 77%
17:00 -11°C° 0 mm 6 mps 725 mmHg 84%
18:00 -11°C° 0.2 mm 6 mps 724 mmHg 85%
19:00 -12°C° 0.2 mm 7 mps 724 mmHg 86%
20:00 -12°C° 0.2 mm 7 mps 724 mmHg 87%
21:00 -12°C° 0.4 mm 7 mps 724 mmHg 88%
22:00 -12°C° 0.4 mm 7 mps 724 mmHg 88%
23:00 -12°C° 0.4 mm 7 mps 724 mmHg 89%
Show more